Flag for Switzerland Weather past 2 weeks in Montreux, Vaud, Switzerland

Now
57 °F

Cool.


Feels Like: 56 °F
Forecast: 34 / 54 °F
Wind: 5 mph from North

Location: Aigle

Current Time: Oct 25, 2014 at 5:33:24 PM

Latest Report: Oct 25, 2014 at 4:00 PM


Visibility: N/A

Pressure: 30.14 "Hg

Humidity: 71%

Dew point: 47 °F

Location of MontreuxLocation

Historic Weather in Montreux — Graph

°F

Montreux temperature yesterday

Maximum temperature yesterday: 54 °F (at 3:00 PM)
Minimum temperature yesterday: 34 °F (at 7:00 AM)
Average temperature yesterday: 43 °F

Past Weeks' High & Low Weather Summary

 TemperatureHumidityPressure
High69 °F (Oct 20, 3:00 PM)98% (Oct 11, 6:00 AM)30.39 "Hg (Oct 11, 6:00 AM)
Low34 °F (Oct 24, 7:00 AM)48% (Oct 22, 6:00 AM)29.76 "Hg (Oct 13, 5:00 AM)
Average55 °F82%30.04 "Hg
* Reported Oct 10 4:00 PM — Oct 25 4:00 PM, Montreux, Weather by CustomWeather, © 2014

Note: Actual official high and low records may vary slightly from our data, if they occured in-between our weather recording intervals... More about our weather records

Advertising

Montreux weather history for previous 24 hours

 ConditionsComfort  
Time TempWeatherWind HumidityBarometerVisibility
4:00 PM
Oct 25
57 °FCool.5 mph71%30.14 "HgN/A
3:00 PM56 °FCool.1 mph60%30.13 "HgN/A
2:00 PM54 °FOvercast.1 mph65%30.16 "Hg12 mi
1:00 PM55 °FCool.7 mph65%30.16 "HgN/A
12:00 PM54 °FCool.3 mph69%30.17 "HgN/A
11:00 AM52 °FOvercast.1 mph67%30.16 "Hg14 mi
10:00 AM50 °FCool.1 mph80%30.16 "HgN/A
9:00 AM47 °FCool.3 mph83%30.15 "HgN/A
8:00 AM47 °FCool.1 mph79%30.14 "HgN/A
7:00 AM47 °FCool.3 mph87%30.14 "HgN/A
6:00 AM48 °FCool.1 mph75%30.13 "HgN/A
5:00 AM48 °FOvercast.1 mph77%30.13 "Hg9 mi
4:00 AM49 °FCool.2 mph73%30.13 "HgN/A
3:00 AM48 °FCool.2 mph74%30.13 "HgN/A
2:00 AM49 °FCool.5 mph70%30.14 "HgN/A
1:00 AM47 °FCool.1 mph82%30.16 "HgN/A
12:00 AM47 °FCool.1 mph79%30.16 "HgN/A
11:00 PM
Oct 24
46 °FCool.2 mph83%30.17 "HgN/A
10:00 PM43 °FQuite cool.5 mph92%30.18 "HgN/A
9:00 PM42 °FQuite cool.2 mph93%30.19 "HgN/A
8:00 PM42 °FPassing clouds.1 mph95%30.17 "Hg25 mi
7:00 PM45 °FQuite cool.1 mph88%30.14 "HgN/A
6:00 PM47 °FCool.2 mph82%30.13 "HgN/A
5:00 PM53 °FSunny.3 mph65%30.11 "Hg25 mi
Weather by CustomWeather, © 2014

See weather overviewHow to use our weather pages